Location: Cuspide de Bachimaña
(42.8000°N, 0.2333°W)
Time: 14:57:27
(UTC+00:00)

Daily predictions for brighter satellites

Satellite Brightness Start Highest point End
(mag) Time Altitude Azimuth Time Altitude Azimuth Time Altitude Azimuth
Resurs 01 Rocket 1.8 20:11:47 10° SSE 20:16:08 59° ENE 20:20:31 10° N
COSMOS 2406 4.2 20:13:55 10° SSE 20:18:36 26° ESE 20:23:19 10° NE
Cosmos 1833 Rocket 2.9 20:18:40 10° S 20:24:02 50° ESE 20:29:28 10° NE
H-2A R/B 2.1 20:23:11 10° NNE 20:27:41 83° ESE 20:32:11 10° SSW
Cosmos 1536 Rocket 3.7 20:26:03 10° S 20:30:15 53° E 20:34:30 10° NNE
Cosmos 1703 3.8 20:27:52 10° SSE 20:31:26 38° E 20:35:02 10° NNE
CARTOSAT-1 4.1 20:29:23 10° SE 20:33:26 42° ENE 20:37:31 10° N
Cosmos 1741 Rocket 4.2 20:29:39 10° NNW 20:34:57 61° ENE 20:40:03 11° SSE
USA 245 4.2 20:32:00 11° SE 20:35:17 29° ENE 20:38:09 10° NNE
Ariane Rocket 3.1 20:32:23 10° SSE 20:37:26 69° ENE 20:42:31 10° N
PSLV R/B 4.2 20:38:59 10° N 20:43:09 74° WNW 20:47:18 10° SSW
IRS-1A Rocket 4.5 20:37:37 10° SSE 20:43:32 83° WSW 20:49:26 10° NNW
CZ-4B R/B 1.0 20:44:20 10° N 20:47:13 84° WNW 20:50:07 10° SSW
Terra 3.3 20:44:04 11° ESE 20:47:30 24° ENE 20:51:16 10° NNE
SPOT 3 Rocket 3.8 20:44:20 12° SSE 20:49:04 57° ENE 20:54:11 10° N
ATLAS 2AS CENTAUR R/B 3.6 20:43:28 10° NW 20:49:57 42° WSW 20:56:02 10° S
SPOT 5 3.6 20:46:56 14° SE 20:50:08 32° ENE 20:54:00 10° N
RESURS DK-1 2.4 20:49:18 10° NNW 20:53:27 77° WSW 20:56:54 14° SSE
Cosmos 1544 Rocket 4.4 20:49:53 10° NNW 20:54:04 49° W 20:58:15 10° SSW
Cosmos 1271 Rocket 4.0 20:52:13 10° NNW 20:55:56 39° W 20:59:34 10° SSW
Cosmos 1455 3.3 20:52:36 10° NNW 20:56:13 42° W 20:59:50 10° SSW
SL-24 R/B 4.4 20:52:19 10° S 20:56:43 83° WSW 21:01:48 10° NNW
Cosmos 1850 Rocket 4.1 20:55:23 10° NNW 21:00:35 77° WSW 21:05:09 13° SSE
Cosmos 1331 Rocket 4.0 20:55:50 10° SSW 21:01:08 85° ESE 21:06:28 10° NNE
Cosmos 2082 Rocket 2.6 20:56:55 10° S 21:02:14 42° ESE 21:07:35 10° NE
IRAS Rocket 4.2 20:58:19 10° NNE 21:03:56 85° ESE 21:09:27 10° SSW
Cosmos 2074 Rocket 4.0 20:59:07 10° N 21:05:25 88° E 21:11:21 11° S
Helios 1A Rocket 3.5 21:04:55 19° SE 21:07:26 43° ENE 21:11:20 10° N
Cosmos 2360 4.2 21:01:52 10° NNW 21:07:38 80° ENE 21:11:58 18° SSE
Cosmos 1328 4.2 21:05:03 18° SSE 21:07:42 44° E 21:11:31 10° NNE
Spot 2 Rocket 3.8 21:04:02 17° SE 21:07:48 55° ENE 21:12:47 10° N
Cosmos 2084 Rocket 3.5 21:07:32 10° NNW 21:11:25 62° NE 21:13:53 22° SE
Nadezhda 1 Rocket 3.9 21:06:54 10° S 21:12:55 69° E 21:18:57 10° NNE
GEOS 3 Rocket 3.9 21:09:16 16° SSE 21:13:13 59° WSW 21:18:18 10° NW
Lacrosse 5 4.1 21:11:43 10° W 21:14:50 16° WSW 21:17:54 10° SSW
Cosmos 1900 4.4 21:10:21 10° NNW 21:15:32 84° WSW 21:18:57 21° SSE
Delta 2 Rocket 4.2 21:14:39 10° WSW 21:17:17 21° S 21:17:32 21° S
Cosmos 1295 Rocket 4.5 21:13:06 10° N 21:19:19 75° E 21:23:57 18° SSE
X-37B 0.5 21:22:12 10° W 21:24:56 51° SSW 21:25:27 43° SSE
ERS-1 Rocket 3.0 21:22:07 22° SSE 21:25:22 69° ENE 21:30:23 10° N
Cosmos 1892 3.7 21:26:26 26° ESE 21:27:16 29° E 21:30:34 10° NNE
Meteor 1-21 Rocket 4.4 21:24:08 10° SSW 21:29:43 77° W 21:35:28 10° N
Cosmos 1302 Rocket 3.9 21:28:03 10° SSW 21:33:14 79° ESE 21:38:27 10° NNE
Cosmos 2228 3.6 21:32:19 10° NNW 21:36:26 52° W 21:39:22 18° SSW
Cosmos 192 4.4 21:31:37 10° SSW 21:36:31 82° WNW 21:41:27 10° NNE
SL-8 R/B 4.2 21:32:42 10° WNW 21:37:16 45° SW 21:39:18 28° SSE
Cosmos 2154 Rocket 4.1 21:33:35 10° NNW 21:39:47 73° W 21:44:32 18° S
Cosmos 1892 Rocket 3.5 21:38:01 26° S 21:40:24 71° E 21:44:46 10° NNE
Cosmos 968 Rocket 3.5 21:38:37 10° NNW 21:43:51 78° ENE 21:46:30 30° SSE
Cosmos 1697 Rocket 3.3 21:40:56 10° NW 21:46:20 49° WSW 21:49:51 21° S
Cosmos 1980 Rocket 2.2 21:41:25 10° NNW 21:47:09 85° ENE 21:50:07 30° SSE
Cosmos 1408 2.3 21:48:44 49° SSE 21:49:29 68° E 21:52:56 10° NNE
SL-16 R/B 3.7 21:44:54 10° N 21:49:40 27° NE 21:52:57 16° E
Cosmos 2058 Rocket 3.2 21:47:21 10° N 21:51:46 61° E 21:53:20 37° SE
ATLAS 5 CENTAUR R/B 1.0 21:50:51 33° SSW 21:52:21 66° ESE 21:56:20 10° NE
Resurs 01 Rocket 4.2 21:50:45 10° WSW 21:52:59 14° W 21:55:14 10° WNW
SL-8 Rocket 4.2 21:48:54 10° N 21:55:02 58° E 21:58:01 30° SE
Cosmos 2369 3.8 21:49:51 10° NNW 21:55:36 75° WSW 21:58:31 30° S
CZ-2C R/B 3.8 21:51:18 10° N 21:55:49 73° WNW 21:58:48 21° SSW
USA 267 3.7 21:50:31 10° ENE 21:56:30 37° SE 21:59:31 25° S
In-Cosmos 22 Rocket 4.2 21:59:05 32° SSE 22:01:31 60° E 22:06:51 10° NNE
SJ 16-02 3.4 21:58:58 10° NNE 22:01:56 17° ENE 22:03:35 14° E
COSMOS 2406 4.2 21:57:03 10° SW 22:02:36 47° WNW 22:08:10 10° NNE
Cosmos 1825 2.3 22:08:00 49° ESE 22:08:11 50° E 22:11:49 10° NNE
Cosmos 1867 3.6 22:07:50 10° NW 22:13:16 69° WSW 22:15:18 38° S
Cosmos 2366 rocket 4.0 22:09:07 10° N 22:15:28 71° E 22:18:15 35° SSE
Cosmos 1869 3.4 22:14:10 10° N 22:18:01 55° E 22:18:25 52° ESE
Cosmos 2218 Rocket 4.0 22:15:30 10° N 22:21:57 79° E 22:24:42 37° SSE
ARIANE 5 R/B 3.1 22:21:46 37° SSW 22:23:13 53° W 22:27:32 10° NNW
Cosmos 2322 Rocket 3.3 22:18:42 10° N 22:23:52 34° NE 22:26:28 23° ESE
Terra 2.8 22:22:57 26° SSW 22:25:01 39° W 22:29:29 10° NNW
GP-B 3.0 22:20:49 10° N 22:25:16 83° W 22:26:26 49° SSW
Meteor 1-27 4.1 22:19:56 10° N 22:25:31 80° E 22:27:28 42° SSE
SPOT 5 4.5 22:26:10 16° SW 22:28:17 22° W 22:31:42 10° NW
USA 276 3.1 22:25:45 10° NW 22:28:39 40° NNE 22:28:42 40° NNE
SAR-Lupe-4 3.4 22:25:53 10° NNE 22:29:29 90° E 22:29:35 84° S
FALCON 9 DEB 3.3 22:27:34 10° NW 22:30:31 65° NNW 22:30:31 65° NNW
Cosmos 1959 Rocket 4.4 22:25:52 10° N 22:32:01 90° E 22:34:27 40° S
Cosmos 2278 3.8 22:31:49 10° NNW 22:37:29 66° WSW 22:39:18 42° S
Cosmos 1633 3.0 22:39:00 48° NE 22:39:00 48° NE 22:41:49 10° NNE
Cosmos 1992 Rocket 4.4 22:37:43 24° SW 22:40:49 60° WNW 22:46:01 10° NNE
Okean 1-7 Rocket 3.8 22:40:57 44° SW 22:42:10 64° W 22:46:39 10° N
Cosmos 1758 Rocket 3.7 22:42:24 53° ESE 22:42:34 53° E 22:46:51 10° NNE
Cosmos 2333 Rocket 4.1 22:40:06 10° N 22:44:31 22° NE 22:48:06 13° E
Cosmos 2082 Rocket 3.9 22:41:24 10° WSW 22:46:26 31° NW 22:51:28 10° N
Cosmos 1486 Rocket 4.1 22:43:39 10° NNW 22:48:50 64° WSW 22:50:04 48° SSW
ASTEX 1 4.1 22:44:19 10° N 22:49:09 50° W 22:51:10 31° SW
Cosmos 1606 3.5 22:50:55 10° N 22:54:21 41° ENE 22:54:21 41° ENE
Cosmos-2242 3.0 22:50:48 10° N 22:55:01 62° E 22:55:10 62° E
Cosmos 1812 Rocket 3.4 22:51:19 10° N 22:55:48 82° E 22:56:09 74° SE
ADEOS Rocket 3.9 22:53:13 32° SE 22:56:37 54° ENE 23:04:06 10° N
Cosmos 1340 Rocket 4.3 22:58:42 25° ENE 22:58:42 25° ENE 23:01:19 10° NNE
Cosmos 2360 Rocket 3.1 22:53:04 10° NNW 22:58:25 41° ENE 23:00:32 30° ESE
Gbstr 26 Del rocket 2.9 22:58:59 72° E 22:58:59 72° E 23:03:27 10° ENE
Cosmos 1602 Rocket 3.7 23:05:35 56° WSW 23:06:06 61° W 23:10:23 10° N
Cosmos 1821 Rocket 3.9 23:03:25 10° N 23:09:39 88° E 23:11:22 51° S
Cosmos 44 3.5 23:14:10 48° E 23:14:10 48° E 23:17:54 10° NE
Cosmos 1833 4.4 23:14:26 49° ESE 23:14:51 50° ESE 23:20:14 10° NE
Cosmos 1354 Rocket 3.9 23:13:31 10° NNW 23:18:48 73° WSW 23:19:33 62° SSW
Cosmos 2237 4.1 23:15:33 10° NNW 23:21:19 89° WSW 23:22:30 59° SSE
ALOS 2 2.5 23:21:37 71° E 23:21:44 72° ENE 23:26:07 10° N
CENTAUR R/B 3.9 23:22:31 20° ESE 23:22:31 20° ESE 23:26:45 10° ENE
Spot 4 3.8 23:21:49 66° SW 23:22:16 71° WSW 23:27:04 10° NNW
ERS-2 3.8 23:20:55 10° NE 23:22:56 25° ENE 23:22:56 25° ENE
Cosmos 1503 Rocket 4.4 23:22:09 10° NNW 23:27:14 49° WSW 23:27:51 47° SW
Cosmos 2058 2.9 23:29:58 80° N 23:29:58 80° N 23:33:56 10° N
Nadezhda 3 Rocket 4.0 23:28:02 47° SSW 23:29:52 74° W 23:36:03 10° N
Cosmos 1980 Rocket 4.3 23:27:42 10° WNW 23:30:18 13° W 23:31:53 12° WSW
COSMOS 2428 4.5 23:26:23 10° N 23:31:03 25° NE 23:34:37 14° E
Cosmos 1777 Rocket 3.8 23:27:09 10° NNW 23:32:28 85° WSW 23:33:07 69° S
Cosmos 1953 Rocket 3.6 23:33:03 67° ENE 23:33:03 67° ENE 23:37:17 10° NNE
H-2A R/B 3.4 23:28:41 10° N 23:32:48 80° NW 23:32:48 80° NW
SL-16 R/B 2.5 23:28:33 10° NW 23:34:01 50° WSW 23:34:48 47° SW
Cosmos 2219 Rocket 3.4 23:28:58 10° N 23:34:09 35° ENE 23:36:41 24° ESE
ATLAS 5 CENTAUR R/B 4.2 23:34:58 10° WNW 23:37:25 16° NNW 23:40:02 10° N
USA 267 3.5 23:33:15 10° NE 23:39:45 68° NW 23:46:13 10° WSW
SL-4 R/B 3.0 23:40:05 35° NW 23:40:39 38° NNW 23:44:05 10° NE
SJ 16-02 1.9 23:36:30 10° NNW 23:40:31 48° W 23:40:31 48° W
Cosmos 1825 Rocket 3.7 23:41:10 61° W 23:41:13 61° W 23:45:31 10° N
Meteor 2-2 Rocket 4.3 23:36:49 10° N 23:42:53 88° W 23:44:11 58° S
Cosmos 2221 2.7 23:48:00 10° N 23:52:14 63° ENE 23:52:14 63° ENE
